Baltimore, MD

8:45 PM EDT on July 20, 2017 (GMT -0400)
Baltimore-Washington International

Weather History for KBWI - April, 2014

Change the Weather History Date:

Monday, April 7, 2014

  Actual Average Record
Temperature  
Mean Temperature 46 °F 51 °F  
Max Temperature 53 °F 62 °F 93 °F (1929)
Min Temperature 38 °F 40 °F 22 °F (1982)
Degree Days  
Heating Degree Days 19 14  
Month to date heating degree days 106 107  
Since 1 July heating degree days 4676 4368  
Cooling Degree Days 0 0  
Month to date cooling degree days 0 0  
Year to date cooling degree days 0 1  
Moisture  
Dew Point 43 °F    
Average Humidity 80    
Maximum Humidity 100    
Minimum Humidity 60    
Precipitation  
Precipitation 0.45 in 0.12 in 0.93 in (1899)
Month to date precipitation 0.60 0.82  
Year to date precipitation 12.27 10.67  
Snow  
Snow 0.00 in 0.00 in 0.20 in (2007)
Month to date snowfall 0.0 0.0  
Since 1 July snowfall 39.0 20.1  
Snow Depth 0.00 in    
Sea Level Pressure  
Sea Level Pressure 29.90 in    
Wind  
Wind Speed 5 mph (East)    
Max Wind Speed 24 mph    
Max Gust Speed 32 mph    
Visibility 4 miles    
Events Fog , Rain    
T = Trace of Precipitation, MM = Missing Value Source: NWS Daily Summary

Daily Weather History Graph

Daily Weather History Graph

Search for Another Location

Airport or City:

Trip Planner

Search our weather history database for the weather conditions in past years. The results will help you decide how hot, cold, wet, or windy it might be!

Date:

Astronomy

Apr. 07, 2014 Rise Set
Actual Time 6:41 AM EDT 7:36 PM EDT
Civil Twilight 6:14 AM EDT 8:03 PM EDT
Nautical Twilight 5:42 AM EDT 8:35 PM EDT
Astronomical Twilight 5:08 AM EDT 9:09 PM EDT
Moon 12:36 PM EDT (4/7) 2:10 AM EDT (4/7)
Length of Visible Light 13h 48m
Length of Day
12h 54m
First Quarter, 53% of the Moon is Illuminated
Apr 7
First Quarter
Apr 15
Full
Apr 22
Last Quarter
Apr 29
New
May 6
First Quarter

Hourly Weather History & Observations

Time (EDT) Temp. Windchill Dew Point Humidity Pressure Visibility Wind Dir Wind Speed Gust Speed Precip Events Conditions
12:54 AM 41.0 °F - 28.0 °F 60% 30.18 in 10.0 mi Calm Calm - N/A   Overcast
1:54 AM 41.0 °F - 28.9 °F 62% 30.16 in 10.0 mi Calm Calm - N/A   Overcast
2:54 AM 39.0 °F - 28.9 °F 67% 30.15 in 10.0 mi Calm Calm - N/A   Overcast
3:54 AM 39.0 °F - 30.9 °F 73% 30.14 in 10.0 mi Calm Calm - N/A   Overcast
4:54 AM 39.0 °F - 30.0 °F 70% 30.12 in 10.0 mi Calm Calm - N/A   Overcast
5:54 AM 41.0 °F - 34.0 °F 76% 30.11 in 10.0 mi Calm Calm - N/A   Overcast
6:54 AM 43.0 °F - 37.0 °F 80% 30.14 in 10.0 mi Calm Calm - N/A   Overcast
7:54 AM 44.1 °F 40.8 °F 34.0 °F 68% 30.15 in 9.0 mi ENE 5.8 mph - 0.00 in Rain Light Rain
8:28 AM 42.8 °F 37.5 °F 33.8 °F 70% 30.13 in 6.0 mi East 9.2 mph - 0.01 in Rain Light Rain
8:54 AM 43.0 °F 37.7 °F 33.1 °F 68% 30.12 in 8.0 mi ENE 9.2 mph - 0.01 in Rain Light Rain
9:54 AM 41.0 °F 34.7 °F 34.0 °F 76% 30.11 in 5.0 mi East 10.4 mph - 0.03 in Rain Light Rain
10:54 AM 41.0 °F 35.2 °F 36.0 °F 82% 30.09 in 6.0 mi ENE 9.2 mph - 0.02 in Rain Light Rain
11:16 AM 41.0 °F 35.8 °F 37.4 °F 87% 30.08 in 3.0 mi NE 8.1 mph - 0.02 in Rain Light Rain
11:54 AM 42.1 °F 36.6 °F 37.9 °F 85% 30.05 in 3.0 mi ENE 9.2 mph - 0.05 in Rain Light Rain
12:15 PM 42.8 °F 37.5 °F 39.2 °F 87% 30.03 in 5.0 mi ENE 9.2 mph - 0.00 in Rain Light Rain
12:21 PM 42.8 °F 37.0 °F 39.2 °F 87% 30.02 in 5.0 mi ENE 10.4 mph - 0.01 in Rain Light Rain
12:54 PM 44.1 °F 38.6 °F 41.0 °F 89% 29.99 in 3.0 mi East 10.4 mph - 0.01 in Rain Light Rain
1:14 PM 44.6 °F 38.8 °F 42.8 °F 93% 29.97 in 2.5 mi East 11.5 mph - 0.00 in Rain Light Rain
1:54 PM 46.0 °F 39.0 °F 45.0 °F 96% 29.90 in 2.5 mi East 17.3 mph 23.0 mph 0.01 in Rain Light Rain
2:06 PM 46.4 °F 39.2 °F 46.4 °F 100% 29.86 in 3.0 mi East 18.4 mph 24.2 mph 0.00 in Rain Light Rain
2:54 PM 48.9 °F - 46.9 °F 93% 29.87 in 6.0 mi East 4.6 mph - 0.01 in Rain Light Rain
3:32 PM 50.0 °F - 48.2 °F 94% 29.83 in 1.0 mi NE 4.6 mph - 0.00 in Rain Rain
3:54 PM 48.2 °F - 48.2 °F 100% 29.82 in 1.5 mi NNW 5.8 mph - N/A Rain Rain
4:17 PM 50.0 °F - 48.2 °F 94% 29.83 in 2.5 mi NW 3.5 mph - 0.07 in Rain Light Rain
4:54 PM 50.0 °F - 48.9 °F 96% 29.80 in 2.0 mi Variable 3.5 mph - 0.16 in Rain Rain
5:18 PM 50.0 °F - 48.2 °F 94% 29.77 in 1.5 mi North 6.9 mph - 0.00 in   Light Drizzle
5:54 PM 50.0 °F - 48.9 °F 96% 29.76 in 1.5 mi NE 8.1 mph - 0.02 in   Light Drizzle
6:09 PM 50.0 °F - 48.2 °F 94% 29.75 in 1.5 mi NE 8.1 mph - 0.00 in   Light Drizzle
6:54 PM 50.0 °F - 48.9 °F 96% 29.70 in 1.2 mi ENE 6.9 mph - 0.01 in   Light Drizzle
7:43 PM 51.8 °F - 50.0 °F 94% 29.67 in 0.5 mi ENE 8.1 mph - 0.00 in Fog Fog
7:54 PM 51.1 °F - 50.0 °F 96% 29.68 in 0.5 mi NE 5.8 mph - 0.00 in Fog Fog
8:54 PM 51.1 °F - 50.0 °F 96% 29.70 in 0.2 mi Calm Calm - N/A Fog Fog
9:21 PM 51.8 °F - 51.8 °F 100% 29.70 in 0.1 mi Calm Calm - N/A Fog Fog
9:35 PM 51.8 °F - 51.8 °F 100% 29.69 in 0.1 mi Calm Calm - N/A Fog Fog
9:50 PM 51.8 °F - 51.8 °F 100% 29.69 in 0.2 mi Variable 3.5 mph - N/A Fog Fog
9:54 PM 51.1 °F - 51.1 °F 100% 29.69 in 0.2 mi SE 3.5 mph - N/A Fog Fog
10:20 PM 51.8 °F - 51.8 °F 100% 29.68 in 1.0 mi South 5.8 mph - N/A   Overcast
10:42 PM 53.6 °F - 51.8 °F 94% 29.67 in 4.0 mi South 6.9 mph - N/A   Overcast
10:54 PM 53.1 °F - 52.0 °F 96% 29.66 in 4.0 mi South 9.2 mph - N/A   Overcast
10:58 PM 53.6 °F - 51.8 °F 94% 29.64 in 7.0 mi South 10.4 mph 16.1 mph N/A   Overcast
11:54 PM 53.1 °F - 52.0 °F 96% 29.63 in 8.0 mi South 4.6 mph - N/A   Overcast